If you wish to contribute or participate in the discussions about articles you are invited to join SKYbrary as a registered user

 Actions

Tandil Airport

From SKYbrary Wiki

SAZT
Airport
ICAO: SAZT – IATA: TDL
Summary
Name Tandil Airport
Region South America and Caribbean
Territory Argentina AR.gif
Location Tandil, Buenos Aires
Serving Tandil
Elevation 174.955 m
574 ft
574 ft174.955 m
Type medium airport
Coordinates 37° 14' 14.61" S, 59° 13' 40.52" W
Runways
Designator Length Width Surface ROPS
1/19 2550 m8,366.142 ft
48 m157.48 ft
CON /


METAR
Observation SAZT 210212Z 11011KT 6000 TSRA FEW025 FEW045CB BKN080 15/04 Q1017
Station Tandil Aerodrome
Date/Time 21 November 2019 02:12:00
Wind direction 110°
Wind speed 11 kts
Lowest cloud amount few clouds
Temperature 15°C
Dew point 4°C
Humidity 47%
QNH 1017 hPa
Weather condition n/a

Airport 18km 9.719 nm
18,000 m
59,055.118 ft
northwest of Tandil, Buenos Aires province, Argentina. The airport is mainly used for military training.

Climatology

Temperate oceanic climate (Köppen climate classification Cfb).

Maps

Terrain

Loading map...

Airport Layout

Loading map...


Accidents & Serious Incidents at or in vicinity of SAZT

None on SKYbrary